User: anonymous   Login
Location: Unspecified
(0.0000°N, 0.0000°E)
Time: 10:23:36
(UTC+00:00)
Language:

BY70-1 - Orbit

View from above orbital plane
View from above orbital plane
View from above satellite
View from above satellite

Ground track
Ground track

The orbit data is extracted from the following two-line orbital elements,

1 41909U 16083C   17048.91695933  .18854398  25879-5  30412-3 0  9991
2 41909  97.5426 132.0489 0018248 184.8500 177.2537 16.46800792  8197
Epoch (UTC): 17 February 2017 22:00:25
Eccentricity: 0.0018248
inclination: 97.5426°
perigee height: 136 km
apogee height: 159 km
right ascension of ascending node: 132.0489°
argument of perigee: 184.8500°
revolutions per day: 16.46800792
mean anomaly at epoch: 177.2537°
orbit number at epoch: 819

The dashed part of the orbit path shows where the satellite is in the earth's shadow,  

DLR